Vorticity
9 22 13 15 15 12 10 11 9 4 19 16 9 27 11 11 9 4 22 25 15 8 5 5 5 4 5 10 11 12 13 3 5 4 -4 16 8 5 5 -4 8 8 16
17 13 12 7 7 11 5 11 9 30 -25 63 54 6 10 10 12 12 23 13 5 8 8 8 7 7 7 8 7 10 15 14 12 10 5 15 -7 1 5 3 6 10 14
9 13 8 8 7 -0 8 14 26 3 -25 83 3 9 5 10 2 18 11 4 8 7 5 7 7 9 10 12 13 13 10 9 11 14 15 8 10 20 18 3 11 17 5
12 6 3 7 9 34 23 5 2 2 15 34 4 3 9 6 10 11 6 8 9 7 6 10 14 16 17 18 20 20 17 14 15 11 13 10 4 5 6 26 18 10 11
5 5 10 22 18 15 12 7 0 17 44 10 8 7 10 8 10 7 10 13 7 7 15 14 13 13 16 17 19 17 17 19 16 14 14 12 14 13 11 8 23 14 14
5 11 28 14 12 11 11 13 20 30 16 10 4 7 4 8 5 9 12 6 7 16 11 13 16 17 21 23 21 20 16 14 16 14 11 10 8 8 16 21 20 14 10
13 18 16 10 10 9 15 24 29 23 9 4 12 5 4 8 8 11 8 8 14 11 13 20 19 18 17 15 23 24 18 16 14 17 9 9 12 15 12 15 18 18 13
14 15 13 9 7 12 13 19 18 0 16 11 8 -0 7 13 14 9 9 10 12 16 25 19 15 15 18 19 14 16 21 22 19 18 18 16 16 16 17 15 12 11 14
13 9 5 7 9 13 12 12 10 11 12 6 3 5 14 15 10 8 6 14 14 23 18 13 16 20 21 19 15 17 18 19 17 16 17 15 16 16 14 14 13 13 14
8 7 10 16 12 12 15 14 10 12 6 8 4 12 13 11 8 7 12 10 20 20 14 15 19 21 20 18 14 15 16 14 16 15 15 14 16 14 12 13 15 15 16
10 15 15 13 12 13 14 15 15 11 12 8 11 11 14 7 9 6 10 14 20 15 10 14 16 17 18 17 18 19 18 19 20 19 19 17 16 15 15 15 14 14 15
13 13 14 13 13 16 15 18 17 13 10 10 9 16 10 9 9 6 9 19 21 13 10 13 14 15 15 16 16 13 17 19 16 19 19 18 18 18 18 18 16 17 21
13 13 12 14 18 16 16 12 10 11 10 8 13 14 9 10 9 6 10 21 20 13 11 12 12 15 16 15 16 21 24 23 16 15 17 16 15 14 16 16 17 16 14
12 15 12 14 18 14 11 12 13 10 7 10 14 12 7 8 8 8 9 14 21 15 13 12 14 16 18 14 14 20 21 15 15 14 12 12 12 11 10 10 7 5 8
14 14 13 14 16 14 10 13 10 9 8 10 12 10 7 7 8 9 8 8 16 17 14 14 16 16 8 12 14 14 13 22 16 14 12 12 10 9 7 8 9 12 13
22 15 12 16 13 13 11 13 12 8 9 10 11 8 8 10 10 10 8 7 12 17 15 15 17 8 7 8 11 13 12 12 20 21 14 11 11 7 8 7 8 11 6
17 13 16 18 12 11 12 13 13 9 9 10 10 8 10 11 12 11 9 7 8 14 16 14 16 13 6 6 9 12 9 13 12 21 20 12 10 9 9 7 9 10 7
18 16 18 16 12 9 11 13 13 11 11 10 9 9 10 10 11 10 11 9 8 8 14 16 15 15 8 4 10 11 11 12 12 14 26 20 15 14 13 11 11 11 9
16 17 16 11 12 10 11 14 12 11 10 9 8 8 9 10 10 11 10 11 10 8 8 12 15 14 17 11 4 7 10 11 10 11 12 18 18 14 11 11 12 14 11
13 16 13 10 11 12 12 13 11 12 11 8 8 8 8 10 11 11 12 12 13 9 8 8 10 14 13 14 13 9 4 10 10 10 10 10 12 16 17 17 16 13 11
11 15 12 9 11 14 13 12 11 13 10 7 8 7 8 10 10 11 12 13 13 13 9 8 9 9 12 14 13 12 13 5 8 11 11 11 10 10 10 10 11 11 14
13 13 11 9 9 14 13 13 13 13 9 6 7 7 8 10 10 10 10 10 12 12 14 12 8 9 10 10 13 13 12 15 9 7 10 11 11 11 11 9 10 10 9
15 10 11 8 8 16 16 12 13 12 9 7 7 8 8 9 9 9 8 9 11 12 12 13 15 8 9 9 10 11 13 13 13 9 6 8 10 10 12 11 11 11 11
14 9 11 7 8 11 15 14 13 11 10 9 8 9 7 8 7 8 8 6 6 8 13 14 14 17 9 9 10 11 11 12 12 13 14 13 7 8 11 11 11 11 11
11 10 10 9 8 9 11 14 13 11 8 9 10 10 8 7 7 6 6 5 4 6 7 12 16 15 16 12 10 10 11 12 12 13 13 14 14 15 8 7 10 11 11
13 8 7 6 5 7 9 12 13 12 10 8 8 9 9 7 7 7 5 5 6 7 7 8 16 18 16 16 12 10 11 11 13 13 13 13 13 13 14 14 9 9 11
Height
3107 3100 3092 3085 3077 3070 3064 3058 3053 3048 3042 3036 3029 3022 3017 3011 3006 3000 2991 2986 2981 2978 2975 2971 2967 2964 2961 2958 2956 2953 2950 2948 2944 2945 2945 2948 2947 2948 2950 2950 2948 2948 2947
3095 3087 3081 3075 3068 3061 3055 3049 3043 3037 3029 3022 3018 3013 3008 3003 2999 2990 2983 2980 2975 2971 2967 2963 2959 2954 2951 2947 2944 2941 2940 2939 2935 2933 2933 2936 2937 2938 2938 2940 2941 2941 2941
3087 3081 3074 3067 3061 3054 3047 3040 3033 3027 3020 3015 3009 3005 3000 2995 2990 2983 2977 2973 2968 2962 2957 2952 2947 2941 2937 2934 2931 2928 2926 2926 2924 2922 2923 2923 2925 2927 2928 2930 2932 2933 2933
3078 3071 3064 3058 3050 3042 3036 3030 3023 3017 3012 3007 3001 2998 2993 2988 2982 2976 2970 2965 2959 2953 2947 2941 2934 2928 2923 2919 2916 2913 2912 2911 2912 2912 2912 2912 2913 2917 2917 2918 2921 2923 2925
3068 3063 3056 3047 3039 3032 3026 3020 3014 3008 3004 2998 2994 2992 2986 2980 2974 2968 2963 2957 2950 2944 2937 2929 2922 2915 2910 2906 2902 2900 2899 2898 2899 2899 2900 2901 2902 2905 2907 2908 2909 2911 2916
3061 3054 3046 3037 3030 3023 3017 3010 3005 3000 2996 2992 2988 2984 2979 2972 2967 2961 2955 2948 2941 2933 2926 2918 2911 2904 2899 2895 2892 2890 2888 2886 2887 2888 2889 2890 2892 2896 2897 2897 2898 2901 2906
3051 3045 3037 3029 3022 3015 3009 3003 2998 2993 2990 2986 2982 2977 2971 2965 2959 2953 2947 2940 2932 2924 2916 2907 2900 2895 2890 2885 2881 2879 2878 2877 2877 2878 2879 2880 2882 2886 2887 2889 2889 2891 2895
3043 3036 3028 3022 3015 3007 3001 2995 2990 2986 2983 2979 2975 2970 2965 2959 2953 2947 2940 2931 2924 2915 2907 2899 2892 2887 2882 2877 2873 2871 2870 2869 2869 2869 2869 2871 2874 2876 2878 2880 2881 2883 2885
3034 3026 3020 3013 3007 3001 2994 2989 2984 2980 2977 2973 2969 2964 2959 2953 2947 2940 2932 2924 2916 2908 2900 2893 2886 2879 2875 2871 2867 2864 2863 2862 2861 2861 2862 2863 2865 2867 2869 2871 2874 2875 2878
3025 3018 3011 3005 2999 2993 2988 2983 2979 2975 2972 2968 2963 2958 2952 2947 2941 2933 2924 2916 2908 2901 2895 2888 2880 2874 2869 2865 2861 2859 2857 2856 2855 2855 2856 2856 2858 2860 2862 2864 2867 2868 2870
3017 3010 3003 2997 2991 2986 2981 2976 2973 2969 2966 2962 2957 2952 2947 2942 2935 2928 2919 2910 2901 2895 2889 2883 2877 2871 2866 2861 2857 2854 2852 2851 2849 2849 2850 2851 2852 2854 2856 2857 2859 2861 2863
3010 3002 2996 2990 2985 2979 2975 2971 2967 2964 2961 2957 2952 2948 2943 2938 2931 2924 2915 2905 2897 2891 2886 2880 2874 2869 2863 2859 2855 2851 2849 2847 2846 2846 2846 2847 2848 2849 2851 2853 2854 2856 2858
3002 2995 2989 2984 2979 2973 2969 2966 2963 2959 2956 2952 2948 2944 2939 2934 2928 2920 2913 2903 2895 2889 2884 2878 2873 2867 2862 2858 2853 2849 2846 2845 2844 2845 2845 2845 2846 2848 2849 2851 2852 2853 2854
2994 2988 2983 2978 2973 2968 2964 2961 2958 2955 2951 2948 2944 2939 2934 2929 2924 2917 2911 2902 2894 2888 2883 2877 2872 2867 2862 2858 2854 2850 2847 2845 2845 2844 2845 2845 2847 2848 2849 2850 2851 2852 2853
2987 2981 2976 2971 2967 2963 2960 2956 2953 2951 2947 2943 2939 2935 2931 2926 2920 2913 2906 2899 2892 2886 2881 2876 2872 2868 2864 2860 2855 2852 2849 2846 2845 2845 2845 2846 2846 2847 2848 2849 2850 2851 2851
2978 2973 2969 2965 2961 2958 2955 2952 2949 2946 2942 2939 2935 2931 2927 2922 2916 2910 2904 2898 2891 2885 2880 2876 2872 2868 2865 2861 2857 2853 2850 2847 2845 2844 2844 2845 2846 2847 2848 2848 2849 2850 2850
2971 2967 2963 2959 2956 2953 2950 2947 2945 2941 2938 2935 2932 2927 2923 2918 2913 2908 2902 2897 2891 2885 2880 2875 2871 2868 2865 2862 2858 2855 2851 2849 2846 2844 2843 2844 2845 2846 2847 2847 2848 2848 2849
2965 2961 2957 2954 2951 2948 2945 2943 2940 2938 2935 2932 2929 2924 2920 2915 2910 2905 2900 2896 2891 2886 2880 2875 2871 2868 2865 2863 2860 2857 2854 2851 2849 2846 2844 2843 2844 2845 2845 2846 2847 2847 2847
2959 2956 2952 2949 2946 2944 2941 2938 2936 2933 2931 2928 2925 2921 2917 2912 2907 2903 2898 2894 2890 2885 2880 2876 2871 2868 2865 2862 2860 2857 2855 2852 2850 2847 2845 2844 2843 2843 2844 2845 2845 2845 2845
2954 2951 2947 2944 2941 2939 2936 2934 2931 2929 2926 2924 2921 2917 2914 2910 2905 2901 2897 2892 2888 2884 2880 2876 2871 2868 2864 2862 2859 2857 2855 2852 2850 2848 2846 2845 2843 2842 2842 2842 2842 2843 2843
2949 2946 2943 2940 2937 2934 2931 2928 2926 2924 2922 2920 2917 2914 2911 2907 2903 2899 2895 2891 2886 2882 2878 2875 2871 2867 2864 2861 2858 2856 2854 2852 2850 2848 2846 2845 2843 2842 2841 2841 2841 2840 2840
2943 2941 2938 2935 2932 2929 2926 2924 2922 2920 2918 2916 2914 2911 2908 2904 2901 2897 2893 2889 2885 2880 2876 2873 2870 2867 2863 2860 2857 2854 2852 2851 2849 2847 2845 2844 2842 2841 2840 2839 2839 2838 2838
2937 2935 2933 2930 2927 2924 2922 2919 2917 2915 2914 2912 2910 2907 2904 2901 2898 2895 2891 2887 2883 2879 2875 2871 2868 2865 2861 2858 2856 2853 2851 2849 2847 2846 2844 2843 2841 2840 2839 2838 2837 2836 2836
2932 2930 2928 2925 2923 2920 2917 2915 2913 2911 2909 2907 2905 2903 2901 2898 2895 2892 2888 2885 2881 2877 2873 2868 2864 2861 2858 2855 2853 2851 2848 2846 2844 2842 2841 2840 2839 2838 2836 2835 2835 2834 2833
2927 2925 2923 2921 2918 2915 2912 2910 2908 2906 2904 2902 2901 2898 2896 2894 2891 2888 2885 2882 2878 2874 2870 2865 2861 2857 2854 2852 2849 2847 2845 2843 2841 2839 2837 2836 2835 2834 2833 2832 2832 2831 2830
2922 2920 2918 2915 2913 2911 2908 2905 2903 2900 2899 2897 2895 2893 2891 2889 2886 2883 2881 2878 2874 2871 2867 2862 2857 2853 2849 2847 2845 2843 2841 2839 2837 2835 2834 2832 2831 2830 2829 2828 2828 2827 2827